TimeEST,TemperatureF,Dew PointF,Humidity,Sea Level PressureIn,VisibilityMPH,Wind Direction,Wind SpeedMPH,Gust SpeedMPH,PrecipitationIn,Events,Conditions,WindDirDegrees,DateUTC
12:14 AM,24.1,15.4,70,30.27,10.0,West,18.4,28.8,N/A,,Overcast,270,2013-01-15 05:14:00
12:35 AM,24.1,14.7,68,30.28,10.0,West,12.7,21.9,N/A,,Overcast,260,2013-01-15 05:35:00
12:54 AM,23.9,15.4,70,30.27,10.0,WSW,15.0,21.9,N/A,,Overcast,250,2013-01-15 05:54:00
1:14 AM,24.6,16.0,70,30.27,10.0,WSW,16.1,27.6,N/A,,Overcast,250,2013-01-15 06:14:00
1:35 AM,24.4,17.4,75,30.27,10.0,WSW,17.3,26.5,N/A,Snow,Light Snow,250,2013-01-15 06:35:00
1:54 AM,23.7,16.3,73,30.27,10.0,West,15.0,23.0,N/A,Snow,Light Snow,260,2013-01-15 06:54:00
2:14 AM,23.0,15.4,73,30.28,10.0,WSW,15.0,24.2,N/A,Snow,Light Snow,250,2013-01-15 07:14:00
2:35 AM,23.0,16.3,76,30.28,10.0,West,13.8,25.3,N/A,Snow,Light Snow,260,2013-01-15 07:35:00
2:54 AM,22.5,15.4,74,30.29,7.0,West,16.1,32.2,N/A,Snow,Light Snow,260,2013-01-15 07:54:00
3:15 AM,20.7,12.2,70,30.30,10.0,West,16.1,23.0,N/A,,Overcast,260,2013-01-15 08:15:00
3:35 AM,20.3,11.7,69,30.31,10.0,West,13.8,24.2,N/A,,Mostly Cloudy,260,2013-01-15 08:35:00
3:54 AM,19.4,10.4,68,30.31,10.0,West,12.7,23.0,N/A,,Overcast,260,2013-01-15 08:54:00
4:15 AM,18.9,9.5,67,30.31,10.0,WSW,13.8,23.0,N/A,,Overcast,250,2013-01-15 09:15:00
4:35 AM,18.3,8.8,66,30.31,10.0,West,16.1,24.2,N/A,,Overcast,280,2013-01-15 09:35:00
4:54 AM,18.0,9.1,68,30.31,10.0,West,9.2,16.1,N/A,,Mostly Cloudy,280,2013-01-15 09:54:00
5:15 AM,16.7,7.7,68,30.31,10.0,WNW,9.2,-,N/A,,Mostly Cloudy,290,2013-01-15 10:15:00
5:54 AM,16.2,7.2,68,30.32,10.0,West,6.9,-,N/A,,Scattered Clouds,280,2013-01-15 10:54:00
6:15 AM,16.3,6.4,65,30.32,10.0,West,6.9,-,N/A,,Clear,280,2013-01-15 11:15:00
6:35 AM,15.6,6.8,68,30.32,10.0,WNW,5.8,-,N/A,,Clear,290,2013-01-15 11:35:00
7:15 AM,15.6,7.2,69,30.32,10.0,WNW,5.8,-,N/A,,Clear,290,2013-01-15 12:15:00
7:35 AM,16.3,7.7,69,30.32,10.0,WNW,5.8,-,N/A,,Scattered Clouds,300,2013-01-15 12:35:00
7:54 AM,18.0,9.1,68,30.32,10.0,WNW,5.8,-,N/A,,Mostly Cloudy,290,2013-01-15 12:54:00
8:15 AM,18.0,9.5,70,30.32,10.0,WNW,4.6,-,N/A,,Mostly Cloudy,300,2013-01-15 13:15:00
8:35 AM,18.0,9.5,70,30.32,10.0,Calm,Calm,-,N/A,,Mostly Cloudy,0,2013-01-15 13:35:00
8:54 AM,16.5,9.7,74,30.32,10.0,SSW,4.6,-,N/A,,Mostly Cloudy,200,2013-01-15 13:54:00
9:15 AM,19.9,12.2,72,30.33,10.0,SSW,8.1,-,N/A,,Overcast,200,2013-01-15 14:15:00
9:34 AM,20.1,12.7,73,30.33,10.0,SSW,6.9,-,N/A,,Overcast,210,2013-01-15 14:34:00
9:55 AM,20.3,12.4,71,30.32,10.0,SSW,6.9,-,N/A,,Scattered Clouds,200,2013-01-15 14:55:00
10:15 AM,20.7,12.6,71,30.31,10.0,SSW,6.9,-,N/A,,Clear,200,2013-01-15 15:15:00
10:34 AM,21.2,13.3,72,30.31,10.0,SSW,11.5,-,N/A,,Clear,200,2013-01-15 15:34:00
10:55 AM,22.5,13.1,67,30.30,10.0,SW,8.1,-,N/A,,Scattered Clouds,220,2013-01-15 15:55:00
11:15 AM,23.2,13.6,67,30.30,10.0,SW,10.4,-,N/A,,Scattered Clouds,220,2013-01-15 16:15:00
11:34 AM,23.4,13.6,66,30.29,10.0,SSW,11.5,16.1,N/A,,Clear,210,2013-01-15 16:34:00
11:55 AM,24.1,13.6,64,30.28,10.0,SW,10.4,17.3,N/A,,Clear,220,2013-01-15 16:55:00
12:15 PM,25.5,15.1,65,30.27,10.0,SSW,10.4,-,N/A,,Clear,200,2013-01-15 17:15:00
12:34 PM,25.9,14.9,63,30.27,10.0,SSW,10.4,19.6,N/A,,Mostly Cloudy,210,2013-01-15 17:34:00
1:15 PM,27.5,16.7,64,30.25,10.0,SW,12.7,19.6,N/A,,Mostly Cloudy,220,2013-01-15 18:15:00
1:34 PM,27.0,16.7,65,30.24,10.0,SSW,13.8,19.6,N/A,,Mostly Cloudy,210,2013-01-15 18:34:00
1:55 PM,26.1,15.8,65,30.22,10.0,SSW,12.7,20.7,N/A,,Overcast,210,2013-01-15 18:55:00
2:14 PM,25.9,16.3,67,30.21,10.0,SSW,15.0,20.7,N/A,,Overcast,210,2013-01-15 19:14:00
2:34 PM,26.1,16.2,66,30.21,10.0,SSW,16.1,24.2,N/A,,Overcast,210,2013-01-15 19:34:00
2:55 PM,27.0,16.9,66,30.21,10.0,SSW,13.8,21.9,N/A,,Overcast,210,2013-01-15 19:55:00
3:14 PM,28.0,17.8,65,30.22,10.0,SSW,11.5,23.0,N/A,,Overcast,210,2013-01-15 20:14:00
3:34 PM,27.9,18.1,67,30.21,10.0,SSW,11.5,18.4,N/A,,Overcast,210,2013-01-15 20:34:00
3:55 PM,28.0,18.5,67,30.21,10.0,SSW,12.7,19.6,N/A,,Overcast,200,2013-01-15 20:55:00
4:14 PM,28.0,19.0,69,30.19,10.0,SSW,10.4,18.4,N/A,,Overcast,200,2013-01-15 21:14:00
4:35 PM,27.9,18.9,69,30.19,10.0,SSW,13.8,20.7,N/A,Snow,Light Snow,210,2013-01-15 21:35:00
4:54 PM,28.0,19.0,69,30.19,10.0,SSW,13.8,21.9,N/A,,Overcast,210,2013-01-15 21:54:00
5:14 PM,28.0,18.9,68,30.17,10.0,SSW,13.8,21.9,N/A,,Overcast,210,2013-01-15 22:14:00
5:35 PM,28.0,18.9,68,30.16,10.0,SSW,15.0,20.7,N/A,,Overcast,210,2013-01-15 22:35:00
5:54 PM,28.0,18.5,67,30.16,10.0,SSW,13.8,24.2,N/A,,Overcast,210,2013-01-15 22:54:00
6:14 PM,27.9,18.7,68,30.15,10.0,SSW,15.0,21.9,N/A,,Overcast,210,2013-01-15 23:14:00
6:35 PM,26.2,17.8,70,30.14,10.0,SSW,13.8,19.6,N/A,,Overcast,210,2013-01-15 23:35:00
6:54 PM,26.1,18.0,71,30.14,10.0,SSW,16.1,23.0,N/A,,Overcast,200,2013-01-15 23:54:00
7:14 PM,26.1,18.3,73,30.14,10.0,SSW,11.5,21.9,N/A,,Overcast,200,2013-01-16 00:14:00
7:35 PM,27.0,19.8,74,30.13,10.0,SSW,11.5,24.2,N/A,,Overcast,200,2013-01-16 00:35:00
7:54 PM,26.4,19.2,74,30.13,10.0,SSW,15.0,21.9,N/A,,Overcast,200,2013-01-16 00:54:00
8:14 PM,28.0,20.8,74,30.12,10.0,SSW,16.1,23.0,N/A,,Overcast,200,2013-01-16 01:14:00
8:35 PM,28.0,21.2,76,30.11,10.0,SSW,15.0,25.3,N/A,,Overcast,210,2013-01-16 01:35:00
8:54 PM,28.0,21.2,76,30.10,10.0,SSW,15.0,25.3,N/A,,Overcast,200,2013-01-16 01:54:00
9:14 PM,27.3,20.7,76,30.09,10.0,SSW,16.1,21.9,N/A,,Overcast,200,2013-01-16 02:14:00
9:35 PM,27.1,20.5,76,30.08,10.0,South,12.7,20.7,N/A,,Overcast,190,2013-01-16 02:35:00
9:54 PM,26.2,19.6,76,30.07,10.0,SSW,12.7,18.4,N/A,,Overcast,200,2013-01-16 02:54:00
10:14 PM,28.0,21.2,76,30.06,10.0,SSW,15.0,23.0,N/A,,Overcast,210,2013-01-16 03:14:00
10:35 PM,28.0,21.2,76,30.05,10.0,SSW,16.1,23.0,N/A,,Overcast,200,2013-01-16 03:35:00
10:54 PM,28.0,21.2,76,30.04,10.0,SSW,12.7,23.0,N/A,,Overcast,200,2013-01-16 03:54:00
11:15 PM,28.0,21.2,76,30.03,10.0,SSW,15.0,23.0,N/A,,Overcast,210,2013-01-16 04:15:00
11:35 PM,28.0,21.2,76,30.01,10.0,SSW,13.8,24.2,N/A,,Overcast,210,2013-01-16 04:35:00
11:54 PM,28.0,21.6,77,30.01,10.0,SSW,12.7,18.4,N/A,,Overcast,210,2013-01-16 04:54:00